Location: Newark
(45.8667°N, 9.7333°E)
Time: 02:36:57
(UTC+00:00)

Vanguard 2 Rocket - Pass Details

Date: 27 January 2020
Orbit: 553 x 3327 km, 32.9° (Epoch: 26 February)

Event Time Altitude Azimuth Distance (km) Brightness Sun altitude
Rises 05:37:32 0° 241° (WSW) 2,893 - -12.6°
Exits shadow 05:38:45 - 234° (SW) 2,493 8.8 -12.4°
Reaches altitude 10° 05:39:56 10° 225° (SW) 2,154 8.5 -12.2°
Maximum altitude 05:43:47 23° 173° (S) 1,767 8.6 -11.5°
Drops below altitude 10° 05:49:07 10° 124° (SE) 3,087 10.9 -10.6°
Sets 05:53:23 0° 112° (ESE) 4,558 12.8 -9.9°
